Owensboro, KY

1:44 PM CDT on October 20, 2017 (GMT -0500)
Owensboro-Daviess County

Weather History for KOWB - January, 2013

Change the Weather History Date:

Saturday, January 19, 2013

  Actual Average Record
Temperature  
Mean Temperature 46 °F -  
Max Temperature 56 °F 41 °F 68 °F (1951)
Min Temperature 36 °F 23 °F -18 °F (1940)
Degree Days  
Heating Degree Days 19    
Moisture  
Dew Point 31 °F    
Average Humidity 60    
Maximum Humidity 76    
Minimum Humidity 39    
Precipitation  
Precipitation 0.00 in - - ()
Sea Level Pressure  
Sea Level Pressure 30.16 in    
Wind  
Wind Speed 13 mph (SSW)    
Max Wind Speed 29 mph    
Max Gust Speed 38 mph    
Visibility 10 miles    
Events      
Averages and records for this station are not official NWS values.
T = Trace of Precipitation, MM = Missing Value Source: NWS Daily Summary

Daily Weather History Graph

Daily Weather History Graph

Search for Another Location

Airport or City:

Trip Planner

Search our weather history database for the weather conditions in past years. The results will help you decide how hot, cold, wet, or windy it might be!

Date:

Astronomy

Jan. 19, 2013 Rise Set
Actual Time 7:01 AM CST 4:58 PM CST
Civil Twilight 6:32 AM CST 5:26 PM CST
Nautical Twilight 6:00 AM CST 5:58 PM CST
Astronomical Twilight 5:29 AM CST 6:30 PM CST
Moon 11:23 AM CST (1/19) 12:36 AM CST (1/19)
Length of Visible Light 10h 54m
Length of Day
9h 57m
First Quarter, 57% of the Moon is Illuminated
Jan 19
First Quarter
Jan 26
Full
Feb 3
Last Quarter
Feb 10
New
Feb 17
First Quarter

Hourly Weather History & Observations

Time (CST) Temp. Windchill Dew Point Humidity Pressure Visibility Wind Dir Wind Speed Gust Speed Precip Events Conditions
12:56 AM 36.0 °F 28.0 °F 28.0 °F 73% 30.29 in 10.0 mi South 11.5 mph - N/A   Clear
1:56 AM 36.9 °F 29.1 °F 28.0 °F 70% 30.29 in 10.0 mi South 11.5 mph - N/A   Clear
2:56 AM 36.9 °F 29.1 °F 28.0 °F 70% 30.27 in 10.0 mi South 11.5 mph - N/A   Clear
3:56 AM 36.9 °F 30.7 °F 29.1 °F 74% 30.27 in 10.0 mi SSW 8.1 mph - N/A   Clear
4:56 AM 36.9 °F 29.6 °F 29.1 °F 74% 30.27 in 10.0 mi SSW 10.4 mph - N/A   Clear
5:56 AM 36.0 °F 28.5 °F 29.1 °F 76% 30.27 in 10.0 mi SSW 10.4 mph - N/A   Clear
6:56 AM 36.0 °F 28.5 °F 29.1 °F 76% 30.27 in 10.0 mi South 10.4 mph - N/A   Clear
7:56 AM 37.9 °F 30.5 °F 30.0 °F 73% 30.26 in 10.0 mi SSW 11.5 mph - N/A   Clear
8:56 AM 41.9 °F 34.6 °F 32.0 °F 68% 30.26 in 10.0 mi SSW 13.8 mph - N/A   Clear
9:56 AM 46.9 °F - 34.0 °F 61% 30.25 in 10.0 mi SW 13.8 mph 20.7 mph N/A   Clear
10:56 AM 50.9 °F - 34.0 °F 52% 30.20 in 10.0 mi SW 20.7 mph 31.1 mph N/A   Clear
11:56 AM 54.0 °F - 32.9 °F 45% 30.14 in 10.0 mi SSW 23.0 mph 34.5 mph N/A   Clear
12:56 PM 54.9 °F - 32.9 °F 43% 30.11 in 10.0 mi SSW 20.7 mph 29.9 mph N/A   Clear
1:56 PM 56.8 °F - 32.0 °F 39% 30.08 in 10.0 mi SSW 26.5 mph 33.4 mph N/A   Clear
2:56 PM 56.8 °F - 32.0 °F 39% 30.06 in 10.0 mi SW 28.8 mph 38.0 mph N/A   Clear
3:56 PM 54.9 °F - 32.0 °F 42% 30.05 in 10.0 mi SSW 17.3 mph 26.5 mph N/A   Clear
4:56 PM 50.9 °F - 32.9 °F 50% 30.04 in 10.0 mi SSW 12.7 mph 21.9 mph N/A   Clear
5:56 PM 50.0 °F - 32.0 °F 50% 30.04 in 10.0 mi SSW 13.8 mph 21.9 mph N/A   Clear
6:56 PM 45.9 °F 41.7 °F 32.0 °F 58% 30.08 in 10.0 mi SW 8.1 mph - N/A   Clear
7:56 PM 43.9 °F 38.8 °F 32.0 °F 63% 30.09 in 10.0 mi SSW 9.2 mph - N/A   Clear
8:56 PM 45.9 °F 39.7 °F 31.1 °F 56% 30.08 in 10.0 mi SW 13.8 mph - N/A   Clear
9:56 PM 46.9 °F - 32.0 °F 56% 30.08 in 10.0 mi SW 13.8 mph 21.9 mph N/A   Clear
10:56 PM 45.9 °F 39.4 °F 32.9 °F 61% 30.09 in 10.0 mi WSW 15.0 mph - N/A   Clear
11:56 PM 45.0 °F 38.2 °F 34.9 °F 68% 30.09 in 10.0 mi WSW 15.0 mph - N/A   Clear